Location: Koszewko
(53.2876°N, 14.9061°E)
Time: 23:28:10
(UTC+00:00)

Ariane Rocket - Pass Details

Date: 03 March 2021
Orbit: 759 x 771 km, 98.7° (Epoch: 12 April)

Event Time Altitude Azimuth Distance (km) Brightness Sun altitude
Exits shadow 18:42:04 17° 158° (SSE) 1,876 4.7 -18.5°
Maximum altitude 18:46:03 82° 72° (ENE) 786 2.9 -19.1°
Drops below altitude 10° 18:51:11 10° 346° (NNW) 2,325 5.9 -19.9°
Sets 18:53:30 0° 345° (NNW) 3,255 6.7 -20.2°
